Hourly Data Report for October 02, 2004

TORONTO CITY
ONTARIO

43°40'00.000" N
79°24'00.000" W
112.50 m
6158355
71508
XTO

Download Data

Hourly Data (October 2004)
Hourly Data Report for October 2, 2004
TIME
LST
Temp Definition
°C
Dew Point Definition
°C
Rel Hum Definition
%
Precip. Amount Definition
mm

Wind Dir Definition
10's deg

Wind Spd Definition
km/h
Visibility Definition
km
Stn Press Definition
kPa
Hmdx Definition


Wind Chill Definition


Weather Definition


00:00 18.7 15.2 80   LegendMM LegendMM LegendMM 100.01     LegendNANA
01:00 18.4 16.2 87   LegendMM LegendMM LegendMM 99.98     LegendNANA
02:00 19.3 16.9 86   LegendMM LegendMM LegendMM 99.91     LegendNANA
03:00 19.3 17.2 88   LegendMM LegendMM LegendMM 99.89     LegendNANA
04:00 19.5 17.3 87   LegendMM LegendMM LegendMM 99.86     LegendNANA
05:00 19.2 15.0 77   LegendMM LegendMM LegendMM 99.77     LegendNANA
06:00 18.6 16.3 86   LegendMM LegendMM LegendMM 99.81     LegendNANA
07:00 19.0 16.7 87   LegendMM LegendMM LegendMM 99.80     LegendNANA
08:00 19.3 16.6 84   LegendMM LegendMM LegendMM 99.78     LegendNANA
09:00 19.1 16.4 84   LegendMM LegendMM LegendMM 99.78     LegendNANA
10:00 18.0 15.1 83   LegendMM LegendMM LegendMM 99.76     LegendNANA
11:00 14.2 11.8 85   LegendMM LegendMM LegendMM 99.89     LegendNANA
12:00 13.5 10.0 79   LegendMM LegendMM LegendMM 100.02     LegendNANA
13:00 13.2 9.2 77   LegendMM LegendMM LegendMM 100.11     LegendNANA
14:00 14.9 7.1 60   LegendMM LegendMM LegendMM 100.21     LegendNANA
15:00 15.6 4.0 46   LegendMM LegendMM LegendMM 100.29     LegendNANA
16:00 15.5 2.1 40   LegendMM LegendMM LegendMM 100.40     LegendNANA
17:00 14.3 3.4 48   LegendMM LegendMM LegendMM 100.52     LegendNANA
18:00 13.2 3.1 50   LegendMM LegendMM LegendMM 100.62     LegendNANA
19:00 12.4 3.4 54   LegendMM LegendMM LegendMM 100.70     LegendNANA
20:00 11.7 4.0 59   LegendMM LegendMM LegendMM 100.80     LegendNANA
21:00 10.4 4.0 64   LegendMM LegendMM LegendMM 100.82     LegendNANA
22:00 9.8 4.1 68   LegendMM LegendMM LegendMM 100.85     LegendNANA
23:00 9.6 4.5 70   LegendMM LegendMM LegendMM 100.87     LegendNANA

Notes on Data Quality.

Legend

  • E = Estimated
  • M = Missing
  • NA = Not Available*
  • [empty] = Indicates an unobserved value
Date modified: